{"data":{"norad_id":38991,"epoch":"2026-09-20T02:15:35.618400Z","epoch_age_seconds":53388,"freshness":"FRESH","line1":"1 38991U 12062A   26263.09416225 -.00000253  00000+0  00000+0 0  9998","line2":"2 38991   0.0344  86.0694 0002051  83.5144 148.3212  1.00272031 50719","mean_motion":1.00272031,"eccentricity":0.0002051,"inclination_deg":0.0344,"raan_deg":86.0694,"arg_perigee_deg":83.5144,"mean_anomaly_deg":148.3212,"bstar":0,"rev_number":5071,"period_min":1436.0933808152,"perigee_km":35777.878026221,"apogee_km":35795.173970983,"semimajor_km":42164.662998602,"source":"CELESTRAK","updated_at":"2026-09-20T09:00:35.178219Z"}}